Terminal Aerodrome Forecast
Issued by NWS Pocatello, ID

Home | Current Version | Previous Version | Text Only | Print | Product List | Glossary On
Versions: 1 2 3 4 5 6 7 8 9 10 11 12 13 14 15
000
FTUS45 KPIH 021100
TAFPIH
TAF
KPIH 021120Z 0212/0312 VRB06KT P6SM BKN200
     FM022200 27009KT P6SM FEW050 BKN150
     FM030600 22014KT P6SM SCT050 BKN070
     FM030900 23015G25KT 2SM -SN OVC020=

USA.gov is the U.S. government's official web portal to all federal, state and local government web resources and services.